Torna al catalogo

STARLINK-30550

AttivoComunicazioniVLEO
NORAD 58045·PAYLOAD·🇺🇸 United States

Lanciato Oct 9, 2023 da Vandenberg Space Force Base

Loading…

Prossimi Passaggi (prossime 24 ore)

TLE

AggiornatoSource: CelesTrak SupGP

Epoca: Sep 14, 2026, 21:32 UTC

1 58045C 23156T   26257.89770833  .00009846  00000+0  29083-3 0  2574
2 58045  53.1584 199.5957 0001376  90.5016 327.0776 15.34394366    10

Traccia STARLINK-30550 in tempo reale con AllMySat

Download on the App Store